owner,sensor,date,latitude,longitude,vertical_datum,wind_speed,wind_to_direction,wind_speed_of_gust,qcFlag 
LUMCON,ioos:station:LUMCON:101:1,2005-03-01T00:00:00Z,29.2533,-90.6633,1.0,5.7,280.0,7.7,'11111222,11111222,11111222' 
LUMCON,ioos:station:LUMCON:101:1,2005-03-01T01:00:00Z,29.2533,-90.6633,1.0,4.6,270.0,6.2,'11111222,11111222,11111222' 
LUMCON,ioos:station:LUMCON:101:1,2005-03-01T02:00:00Z,29.2533,-90.6633,1.0,4.6,270.0,6.2,'11111222,11111222,11111222' 
LUMCON,ioos:station:LUMCON:101:1,2005-03-01T03:00:00Z,29.2533,-90.6633,1.0,3.6,260.0,5.1,'11111222,11111222,11111222' 
LUMCON,ioos:station:LUMCON:101:1,2005-03-01T04:00:00Z,29.2533,-90.6633,1.0,3.6,250.0,5.1,'11111222,11111222,11111222' 
LUMCON,ioos:station:LUMCON:101:1,2005-03-01T05:00:00Z,29.2533,-90.6633,1.0,3.6,250.0,4.6,'11111222,11111222,11111222' 
LUMCON,ioos:station:LUMCON:101:1,2005-03-01T06:00:00Z,29.2533,-90.6633,1.0,3.6,270.0,4.6,'11111222,11111222,11111222' 
LUMCON,ioos:station:LUMCON:101:1,2005-03-01T07:00:00Z,29.2533,-90.6633,1.0,3.1,280.0,4.1,'11111222,11111222,11111222' 
LUMCON,ioos:station:LUMCON:101:1,2005-03-01T08:00:00Z,29.2533,-90.6633,1.0,3.6,280.0,4.6,'11111222,11111222,11111222' 
LUMCON,ioos:station:LUMCON:101:1,2005-03-01T09:00:00Z,29.2533,-90.6633,1.0,2.6,270.0,3.1,'11111222,11111222,11111222' 
LUMCON,ioos:station:LUMCON:101:1,2005-03-01T10:00:00Z,29.2533,-90.6633,1.0,2.6,280.0,2.6,'11111222,11111222,11111222' 
LUMCON,ioos:station:LUMCON:101:1,2005-03-01T11:00:00Z,29.2533,-90.6633,1.0,1.0,260.0,1.5,'11111222,11111222,11111222' 
LUMCON,ioos:station:LUMCON:101:1,2005-03-01T12:00:00Z,29.2533,-90.6633,1.0,2.6,250.0,2.6,'11111222,11111222,11111222' 
LUMCON,ioos:station:LUMCON:101:1,2005-03-01T13:00:00Z,29.2533,-90.6633,1.0,2.6,270.0,3.1,'11111222,11111222,11111222' 
LUMCON,ioos:station:LUMCON:101:1,2005-03-01T14:00:00Z,29.2533,-90.6633,1.0,3.6,310.0,5.1,'11111222,11111222,11111222' 
LUMCON,ioos:station:LUMCON:101:1,2005-03-01T15:00:00Z,29.2533,-90.6633,1.0,4.6,340.0,6.2,'11111222,11111222,11111222' 
LUMCON,ioos:station:LUMCON:101:1,2005-03-01T16:00:00Z,29.2533,-90.6633,1.0,4.6,0.0,6.7,'11111222,11111222,11111222' 
LUMCON,ioos:station:LUMCON:101:1,2005-03-01T17:00:00Z,29.2533,-90.6633,1.0,4.1,0.0,5.7,'11111222,11111222,11111222' 
LUMCON,ioos:station:LUMCON:101:1,2005-03-01T18:00:00Z,29.2533,-90.6633,1.0,4.1,360.0,5.7,'11111222,11144222,11111222' 
LUMCON,ioos:station:LUMCON:101:1,2005-03-01T19:00:00Z,29.2533,-90.6633,1.0,3.6,360.0,5.1,'11111222,11144222,11111222' 
LUMCON,ioos:station:LUMCON:101:1,2005-03-01T20:00:00Z,29.2533,-90.6633,1.0,4.6,330.0,7.2,'11111222,11111222,11111222' 
LUMCON,ioos:station:LUMCON:101:1,2005-03-01T21:00:00Z,29.2533,-90.6633,1.0,4.6,300.0,6.2,'11111222,11111222,11111222' 
LUMCON,ioos:station:LUMCON:101:1,2005-03-01T23:00:00Z,29.2533,-90.6633,1.0,3.6,300.0,5.1,'11111222,11111222,11111222' 
LUMCON,ioos:station:LUMCON:101:1,2005-03-02T00:00:00Z,29.2533,-90.6633,1.0,2.6,300.0,3.6,'11111222,11111222,11111222' 
LUMCON,ioos:station:LUMCON:101:1,2005-03-02T01:00:00Z,29.2533,-90.6633,1.0,2.6,310.0,2.6,'11111222,11111222,11111222' 
LUMCON,ioos:station:LUMCON:101:1,2005-03-02T02:00:00Z,29.2533,-90.6633,1.0,2.6,310.0,3.1,'11111222,11111222,11111222' 
LUMCON,ioos:station:LUMCON:101:1,2005-03-02T03:00:00Z,29.2533,-90.6633,1.0,3.6,350.0,4.6,'11111222,11111222,11111222' 
LUMCON,ioos:station:LUMCON:101:1,2005-03-02T04:00:00Z,29.2533,-90.6633,1.0,4.6,10.0,5.1,'11111222,11111222,11111222' 
LUMCON,ioos:station:LUMCON:101:1,2005-03-02T05:00:00Z,29.2533,-90.6633,1.0,4.1,20.0,5.1,'11111222,11111222,11111222' 
LUMCON,ioos:station:LUMCON:101:1,2005-03-02T06:00:00Z,29.2533,-90.6633,1.0,4.6,40.0,5.1,'11111222,11111222,11111222' 
LUMCON,ioos:station:LUMCON:101:1,2005-03-02T07:00:00Z,29.2533,-90.6633,1.0,4.1,50.0,5.7,'11111222,11111222,11111222' 
LUMCON,ioos:station:LUMCON:101:1,2005-03-02T08:00:00Z,29.2533,-90.6633,1.0,5.7,50.0,6.7,'11111222,11111222,11111222' 
LUMCON,ioos:station:LUMCON:101:1,2005-03-02T09:00:00Z,29.2533,-90.6633,1.0,4.1,60.0,6.2,'11111222,11111222,11111222' 
LUMCON,ioos:station:LUMCON:101:1,2005-03-02T10:00:00Z,29.2533,-90.6633,1.0,4.1,80.0,6.2,'11111222,11111222,11111222' 
LUMCON,ioos:station:LUMCON:101:1,2005-03-02T11:00:00Z,29.2533,-90.6633,1.0,5.7,60.0,8.2,'11111222,11111222,11111222' 
LUMCON,ioos:station:LUMCON:101:1,2005-03-02T12:00:00Z,29.2533,-90.6633,1.0,5.1,60.0,7.2,'11111222,11111222,11111222' 
LUMCON,ioos:station:LUMCON:101:1,2005-03-02T13:00:00Z,29.2533,-90.6633,1.0,5.7,50.0,8.2,'11111222,11111222,11111222' 
LUMCON,ioos:station:LUMCON:101:1,2005-03-02T14:00:00Z,29.2533,-90.6633,1.0,5.7,50.0,8.2,'11111222,11111222,11111222' 
LUMCON,ioos:station:LUMCON:101:1,2005-03-02T15:00:00Z,29.2533,-90.6633,1.0,6.7,50.0,9.3,'11111222,11111222,11111222' 
LUMCON,ioos:station:LUMCON:101:1,2005-03-02T17:00:00Z,29.2533,-90.6633,1.0,6.2,70.0,9.3,'11111222,11111222,11111222' 
LUMCON,ioos:station:LUMCON:101:1,2005-03-02T18:00:00Z,29.2533,-90.6633,1.0,5.7,80.0,9.3,'11111222,11111222,11111222' 
LUMCON,ioos:station:LUMCON:101:1,2005-03-02T19:00:00Z,29.2533,-90.6633,1.0,5.7,70.0,8.2,'11111222,11111222,11111222' 
LUMCON,ioos:station:LUMCON:101:1,2005-03-02T20:00:00Z,29.2533,-90.6633,1.0,5.1,70.0,8.8,'11111222,11111222,11111222' 
LUMCON,ioos:station:LUMCON:101:1,2005-03-02T21:00:00Z,29.2533,-90.6633,1.0,5.7,70.0,9.3,'11111222,11111222,11111222' 
LUMCON,ioos:station:LUMCON:101:1,2005-03-03T04:00:00Z,29.2533,-90.6633,1.0,7.7,60.0,10.8,'11111222,11111222,11111222' 
LUMCON,ioos:station:LUMCON:101:1,2005-03-03T05:00:00Z,29.2533,-90.6633,1.0,6.7,90.0,10.3,'11111222,11111222,11111222' 
LUMCON,ioos:station:LUMCON:101:1,2005-03-03T06:00:00Z,29.2533,-90.6633,1.0,5.1,90.0,7.7,'11111222,11111222,11111222' 
LUMCON,ioos:station:LUMCON:101:1,2005-03-03T07:00:00Z,29.2533,-90.6633,1.0,6.7,100.0,10.3,'11111222,11111222,11111222' 
LUMCON,ioos:station:LUMCON:101:1,2005-03-03T08:00:00Z,29.2533,-90.6633,1.0,4.6,90.0,6.7,'11111222,11111222,11111222' 
LUMCON,ioos:station:LUMCON:101:1,2005-03-03T09:00:00Z,29.2533,-90.6633,1.0,3.6,60.0,5.1,'11111222,11111222,11111222' 
LUMCON,ioos:station:LUMCON:101:1,2005-03-03T10:00:00Z,29.2533,-90.6633,1.0,6.2,60.0,8.2,'11111222,11111222,11111222' 
LUMCON,ioos:station:LUMCON:101:1,2005-03-03T11:00:00Z,29.2533,-90.6633,1.0,5.7,60.0,8.2,'11111222,11111222,11111222' 
LUMCON,ioos:station:LUMCON:101:1,2005-03-03T12:00:00Z,29.2533,-90.6633,1.0,6.2,70.0,8.8,'11111222,11111222,11111222' 
LUMCON,ioos:station:LUMCON:101:1,2005-03-03T13:00:00Z,29.2533,-90.6633,1.0,7.2,90.0,11.8,'11111222,11111222,11111222' 
LUMCON,ioos:station:LUMCON:101:1,2005-03-03T14:00:00Z,29.2533,-90.6633,1.0,7.2,100.0,11.3,'11111222,11111222,11111222' 
LUMCON,ioos:station:LUMCON:101:1,2005-03-03T15:00:00Z,29.2533,-90.6633,1.0,5.1,40.0,6.7,'11111222,11111222,11111222' 
LUMCON,ioos:station:LUMCON:101:1,2005-03-03T16:00:00Z,29.2533,-90.6633,1.0,4.6,10.0,7.2,'11111222,11111222,11111222' 
LUMCON,ioos:station:LUMCON:101:1,2005-03-03T17:00:00Z,29.2533,-90.6633,1.0,6.7,30.0,8.8,'11111222,11111222,11111222' 
LUMCON,ioos:station:LUMCON:101:1,2005-03-03T18:00:00Z,29.2533,-90.6633,1.0,7.2,30.0,8.8,'11111222,11111222,11111222' 
LUMCON,ioos:station:LUMCON:101:1,2005-03-03T19:00:00Z,29.2533,-90.6633,1.0,6.2,50.0,9.3,'11111222,11111222,11111222' 
LUMCON,ioos:station:LUMCON:101:1,2005-03-03T20:00:00Z,29.2533,-90.6633,1.0,6.2,50.0,8.8,'11111222,11111222,11111222' 
LUMCON,ioos:station:LUMCON:101:1,2005-03-03T21:00:00Z,29.2533,-90.6633,1.0,7.2,40.0,9.8,'11111222,11111222,11111222' 
LUMCON,ioos:station:LUMCON:101:1,2005-03-03T22:00:00Z,29.2533,-90.6633,1.0,6.2,40.0,8.2,'11111222,11111222,11111222' 
LUMCON,ioos:station:LUMCON:101:1,2005-03-03T23:00:00Z,29.2533,-90.6633,1.0,7.2,40.0,10.3,'11111222,11111222,11111222' 
LUMCON,ioos:station:LUMCON:101:1,2005-03-04T00:00:00Z,29.2533,-90.6633,1.0,5.1,30.0,7.2,'11111222,11111222,11111222' 
LUMCON,ioos:station:LUMCON:101:1,2005-03-04T01:00:00Z,29.2533,-90.6633,1.0,4.6,40.0,6.7,'11111222,11111222,11111222' 
LUMCON,ioos:station:LUMCON:101:1,2005-03-04T02:00:00Z,29.2533,-90.6633,1.0,3.6,40.0,5.1,'11111222,11111222,11111222' 
LUMCON,ioos:station:LUMCON:101:1,2005-03-04T03:00:00Z,29.2533,-90.6633,1.0,3.1,40.0,4.1,'11111222,11111222,11111222' 
LUMCON,ioos:station:LUMCON:101:1,2005-03-04T04:00:00Z,29.2533,-90.6633,1.0,2.6,40.0,3.6,'11111222,11111222,11111222' 
LUMCON,ioos:station:LUMCON:101:1,2005-03-04T05:00:00Z,29.2533,-90.6633,1.0,2.6,60.0,4.1,'11111222,11111222,11111222' 
LUMCON,ioos:station:LUMCON:101:1,2005-03-04T06:00:00Z,29.2533,-90.6633,1.0,2.6,50.0,4.1,'11111222,11111222,11111222' 
LUMCON,ioos:station:LUMCON:101:1,2005-03-04T07:00:00Z,29.2533,-90.6633,1.0,2.1,20.0,2.6,'11111222,11111222,11111222' 
LUMCON,ioos:station:LUMCON:101:1,2005-03-04T08:00:00Z,29.2533,-90.6633,1.0,3.1,40.0,3.6,'11111222,11111222,11111222' 
LUMCON,ioos:station:LUMCON:101:1,2005-03-04T09:00:00Z,29.2533,-90.6633,1.0,3.1,50.0,3.6,'11111222,11111222,11111222' 
LUMCON,ioos:station:LUMCON:101:1,2005-03-04T10:00:00Z,29.2533,-90.6633,1.0,3.1,50.0,4.1,'11111222,11111222,11111222' 
LUMCON,ioos:station:LUMCON:101:1,2005-03-04T11:00:00Z,29.2533,-90.6633,1.0,2.1,50.0,2.6,'11111222,11111222,11111222' 
LUMCON,ioos:station:LUMCON:101:1,2005-03-04T12:00:00Z,29.2533,-90.6633,1.0,2.1,60.0,2.6,'11111222,11111222,11111222' 
LUMCON,ioos:station:LUMCON:101:1,2005-03-04T13:00:00Z,29.2533,-90.6633,1.0,2.6,20.0,3.1,'11111222,11111222,11111222' 
LUMCON,ioos:station:LUMCON:101:1,2005-03-04T14:00:00Z,29.2533,-90.6633,1.0,2.6,60.0,4.1,'11111222,11111222,11111222' 
LUMCON,ioos:station:LUMCON:101:1,2005-03-04T15:00:00Z,29.2533,-90.6633,1.0,3.1,70.0,4.6,'11111222,11111222,11111222' 
LUMCON,ioos:station:LUMCON:101:1,2005-03-04T16:00:00Z,29.2533,-90.6633,1.0,3.1,80.0,5.1,'11111222,11111222,11111222' 
LUMCON,ioos:station:LUMCON:101:1,2005-03-04T17:00:00Z,29.2533,-90.6633,1.0,3.6,90.0,5.1,'11111222,11111222,11111222' 
LUMCON,ioos:station:LUMCON:101:1,2005-03-04T18:00:00Z,29.2533,-90.6633,1.0,3.1,90.0,5.1,'11111222,11111222,11111222' 
LUMCON,ioos:station:LUMCON:101:1,2005-03-04T19:00:00Z,29.2533,-90.6633,1.0,2.6,90.0,4.1,'11111222,11111222,11111222' 
LUMCON,ioos:station:LUMCON:101:1,2005-03-04T20:00:00Z,29.2533,-90.6633,1.0,3.6,120.0,4.6,'11111222,11111222,11111222' 
LUMCON,ioos:station:LUMCON:101:1,2005-03-04T21:00:00Z,29.2533,-90.6633,1.0,3.6,140.0,4.6,'11111222,11111222,11111222' 
LUMCON,ioos:station:LUMCON:101:1,2005-03-04T22:00:00Z,29.2533,-90.6633,1.0,4.1,150.0,4.6,'11111222,11111222,11111222' 
LUMCON,ioos:station:LUMCON:101:1,2005-03-04T23:00:00Z,29.2533,-90.6633,1.0,3.6,140.0,4.6,'11111222,11111222,11111222' 
LUMCON,ioos:station:LUMCON:101:1,2005-03-05T00:00:00Z,29.2533,-90.6633,1.0,2.6,160.0,3.6,'11111222,11111222,11111222' 
LUMCON,ioos:station:LUMCON:101:1,2005-03-05T01:00:00Z,29.2533,-90.6633,1.0,2.1,140.0,2.6,'11111222,11111222,11111222' 
LUMCON,ioos:station:LUMCON:101:1,2005-03-05T02:00:00Z,29.2533,-90.6633,1.0,1.5,130.0,2.1,'11111222,11111222,11111222' 
LUMCON,ioos:station:LUMCON:101:1,2005-03-05T03:00:00Z,29.2533,-90.6633,1.0,2.1,160.0,2.6,'11111222,11111222,11111222' 
LUMCON,ioos:station:LUMCON:101:1,2005-03-05T04:00:00Z,29.2533,-90.6633,1.0,2.1,170.0,2.6,'11111222,11111222,11111222' 
LUMCON,ioos:station:LUMCON:101:1,2005-03-05T05:00:00Z,29.2533,-90.6633,1.0,1.5,150.0,2.1,'11111222,11111222,11111222' 
LUMCON,ioos:station:LUMCON:101:1,2005-03-05T06:00:00Z,29.2533,-90.6633,1.0,2.1,130.0,2.6,'11111222,11111222,11111222' 
LUMCON,ioos:station:LUMCON:101:1,2005-03-05T07:00:00Z,29.2533,-90.6633,1.0,1.0,210.0,1.0,'11111222,11111222,11111222' 
LUMCON,ioos:station:LUMCON:101:1,2005-03-05T08:00:00Z,29.2533,-90.6633,1.0,0.5,300.0,1.0,'11111222,11111222,11111222' 
LUMCON,ioos:station:LUMCON:101:1,2005-03-05T09:00:00Z,29.2533,-90.6633,1.0,2.1,310.0,2.1,'11111222,11111222,11111222' 
LUMCON,ioos:station:LUMCON:101:1,2005-03-05T10:00:00Z,29.2533,-90.6633,1.0,1.5,360.0,2.1,'11111222,11144222,11111222' 
LUMCON,ioos:station:LUMCON:101:1,2005-03-05T11:00:00Z,29.2533,-90.6633,1.0,2.1,360.0,2.6,'11111222,11144222,11111222' 
LUMCON,ioos:station:LUMCON:101:1,2005-03-05T12:00:00Z,29.2533,-90.6633,1.0,1.5,360.0,1.5,'11111222,11144222,11111222' 
LUMCON,ioos:station:LUMCON:101:1,2005-03-05T13:00:00Z,29.2533,-90.6633,1.0,1.0,360.0,1.5,'11111222,11144222,11111222' 
LUMCON,ioos:station:LUMCON:101:1,2005-03-05T14:00:00Z,29.2533,-90.6633,1.0,1.5,20.0,2.1,'11111222,11111222,11111222' 
LUMCON,ioos:station:LUMCON:101:1,2005-03-05T15:00:00Z,29.2533,-90.6633,1.0,1.5,340.0,2.6,'11111222,11111222,11111222' 
LUMCON,ioos:station:LUMCON:101:1,2005-03-05T16:00:00Z,29.2533,-90.6633,1.0,1.5,320.0,3.1,'11111222,11111222,11111222' 
LUMCON,ioos:station:LUMCON:101:1,2005-03-05T17:00:00Z,29.2533,-90.6633,1.0,2.6,330.0,4.1,'11111222,11111222,11111222' 
LUMCON,ioos:station:LUMCON:101:1,2005-03-05T18:00:00Z,29.2533,-90.6633,1.0,1.5,330.0,3.1,'11111222,11111222,11111222' 
LUMCON,ioos:station:LUMCON:101:1,2005-03-05T19:00:00Z,29.2533,-90.6633,1.0,1.5,320.0,2.6,'11111222,11111222,11111222' 
LUMCON,ioos:station:LUMCON:101:1,2005-03-05T20:00:00Z,29.2533,-90.6633,1.0,3.1,150.0,4.6,'11111222,11111222,11111222' 
LUMCON,ioos:station:LUMCON:101:1,2005-03-05T21:00:00Z,29.2533,-90.6633,1.0,2.6,160.0,4.1,'11111222,11111222,11111222' 
LUMCON,ioos:station:LUMCON:101:1,2005-03-05T22:00:00Z,29.2533,-90.6633,1.0,3.1,250.0,4.6,'11111222,11111222,11111222' 
LUMCON,ioos:station:LUMCON:101:1,2005-03-05T23:00:00Z,29.2533,-90.6633,1.0,3.6,210.0,4.1,'11111222,11111222,11111222' 
LUMCON,ioos:station:LUMCON:101:1,2005-03-06T00:00:00Z,29.2533,-90.6633,1.0,3.1,230.0,4.1,'11111222,11111222,11111222' 
LUMCON,ioos:station:LUMCON:101:1,2005-03-06T01:00:00Z,29.2533,-90.6633,1.0,2.6,250.0,3.6,'11111222,11111222,11111222' 
LUMCON,ioos:station:LUMCON:101:1,2005-03-06T02:00:00Z,29.2533,-90.6633,1.0,2.1,290.0,2.1,'11111222,11111222,11111222' 
LUMCON,ioos:station:LUMCON:101:1,2005-03-06T03:00:00Z,29.2533,-90.6633,1.0,1.5,260.0,2.1,'11111222,11111222,11111222' 
LUMCON,ioos:station:LUMCON:101:1,2005-03-06T04:00:00Z,29.2533,-90.6633,1.0,2.1,250.0,2.6,'11111222,11111222,11111222' 
LUMCON,ioos:station:LUMCON:101:1,2005-03-06T05:00:00Z,29.2533,-90.6633,1.0,2.6,260.0,3.6,'11111222,11111222,11111222' 
LUMCON,ioos:station:LUMCON:101:1,2005-03-06T06:00:00Z,29.2533,-90.6633,1.0,2.6,280.0,3.1,'11111222,11111222,11111222' 
LUMCON,ioos:station:LUMCON:101:1,2005-03-06T07:00:00Z,29.2533,-90.6633,1.0,2.6,300.0,3.1,'11111222,11111222,11111222' 
LUMCON,ioos:station:LUMCON:101:1,2005-03-06T08:00:00Z,29.2533,-90.6633,1.0,3.1,320.0,4.1,'11111222,11111222,11111222' 
LUMCON,ioos:station:LUMCON:101:1,2005-03-06T09:00:00Z,29.2533,-90.6633,1.0,4.1,310.0,5.7,'11111222,11111222,11111222' 
LUMCON,ioos:station:LUMCON:101:1,2005-03-06T10:00:00Z,29.2533,-90.6633,1.0,4.1,0.0,5.1,'11111222,11111222,11111222' 
LUMCON,ioos:station:LUMCON:101:1,2005-03-06T11:00:00Z,29.2533,-90.6633,1.0,3.1,20.0,3.6,'11111222,11111222,11111222' 
LUMCON,ioos:station:LUMCON:101:1,2005-03-06T12:00:00Z,29.2533,-90.6633,1.0,3.1,50.0,4.1,'11111222,11111222,11111222' 
LUMCON,ioos:station:LUMCON:101:1,2005-03-06T13:00:00Z,29.2533,-90.6633,1.0,3.6,60.0,5.1,'11111222,11111222,11111222' 
LUMCON,ioos:station:LUMCON:101:1,2005-03-06T14:00:00Z,29.2533,-90.6633,1.0,4.1,60.0,5.7,'11111222,11111222,11111222' 
LUMCON,ioos:station:LUMCON:101:1,2005-03-06T15:00:00Z,29.2533,-90.6633,1.0,4.1,70.0,6.7,'11111222,11111222,11111222' 
LUMCON,ioos:station:LUMCON:101:1,2005-03-06T16:00:00Z,29.2533,-90.6633,1.0,3.1,90.0,4.6,'11111222,11111222,11111222' 
LUMCON,ioos:station:LUMCON:101:1,2005-03-06T17:00:00Z,29.2533,-90.6633,1.0,4.1,100.0,6.2,'11111222,11111222,11111222' 
LUMCON,ioos:station:LUMCON:101:1,2005-03-06T18:00:00Z,29.2533,-90.6633,1.0,3.6,100.0,5.7,'11111222,11111222,11111222' 
LUMCON,ioos:station:LUMCON:101:1,2005-03-06T19:00:00Z,29.2533,-90.6633,1.0,4.1,100.0,5.7,'11111222,11111222,11111222' 
LUMCON,ioos:station:LUMCON:101:1,2005-03-06T20:00:00Z,29.2533,-90.6633,1.0,3.6,110.0,4.6,'11111222,11111222,11111222' 
LUMCON,ioos:station:LUMCON:101:1,2005-03-06T21:00:00Z,29.2533,-90.6633,1.0,3.6,120.0,4.1,'11111222,11111222,11111222' 
LUMCON,ioos:station:LUMCON:101:1,2005-03-06T22:00:00Z,29.2533,-90.6633,1.0,3.6,110.0,5.7,'11111222,11111222,11111222' 
LUMCON,ioos:station:LUMCON:101:1,2005-03-06T23:00:00Z,29.2533,-90.6633,1.0,3.1,100.0,4.1,'11111222,11111222,11111222' 
LUMCON,ioos:station:LUMCON:101:1,2005-03-07T00:00:00Z,29.2533,-90.6633,1.0,2.1,90.0,3.1,'11111222,11111222,11111222' 
LUMCON,ioos:station:LUMCON:101:1,2005-03-07T01:00:00Z,29.2533,-90.6633,1.0,2.1,110.0,3.1,'11111222,11111222,11111222' 
LUMCON,ioos:station:LUMCON:101:1,2005-03-07T02:00:00Z,29.2533,-90.6633,1.0,3.1,100.0,4.1,'11111222,11111222,11111222' 
LUMCON,ioos:station:LUMCON:101:1,2005-03-07T03:00:00Z,29.2533,-90.6633,1.0,3.6,130.0,4.6,'11111222,11111222,11111222' 
LUMCON,ioos:station:LUMCON:101:1,2005-03-07T04:00:00Z,29.2533,-90.6633,1.0,3.6,140.0,4.6,'11111222,11111222,11111222' 
LUMCON,ioos:station:LUMCON:101:1,2005-03-07T05:00:00Z,29.2533,-90.6633,1.0,3.6,130.0,4.6,'11111222,11111222,11111222' 
LUMCON,ioos:station:LUMCON:101:1,2005-03-07T06:00:00Z,29.2533,-90.6633,1.0,2.1,110.0,3.1,'11111222,11111222,11111222' 
LUMCON,ioos:station:LUMCON:101:1,2005-03-07T07:00:00Z,29.2533,-90.6633,1.0,2.1,120.0,2.6,'11111222,11111222,11111222' 
LUMCON,ioos:station:LUMCON:101:1,2005-03-07T08:00:00Z,29.2533,-90.6633,1.0,2.6,130.0,3.1,'11111222,11111222,11111222' 
LUMCON,ioos:station:LUMCON:101:1,2005-03-07T09:00:00Z,29.2533,-90.6633,1.0,2.6,130.0,3.6,'11111222,11111222,11111222' 
LUMCON,ioos:station:LUMCON:101:1,2005-03-07T10:00:00Z,29.2533,-90.6633,1.0,2.6,130.0,3.1,'11111222,11111222,11111222' 
LUMCON,ioos:station:LUMCON:101:1,2005-03-07T11:00:00Z,29.2533,-90.6633,1.0,2.1,130.0,3.1,'11111222,11111222,11111222' 
LUMCON,ioos:station:LUMCON:101:1,2005-03-07T12:00:00Z,29.2533,-90.6633,1.0,2.1,110.0,2.6,'11111222,11111222,11111222' 
LUMCON,ioos:station:LUMCON:101:1,2005-03-07T13:00:00Z,29.2533,-90.6633,1.0,2.6,130.0,3.1,'11111222,11111222,11111222' 
LUMCON,ioos:station:LUMCON:101:1,2005-03-07T14:00:00Z,29.2533,-90.6633,1.0,3.1,150.0,3.6,'11111222,11111222,11111222' 
LUMCON,ioos:station:LUMCON:101:1,2005-03-07T15:00:00Z,29.2533,-90.6633,1.0,3.1,160.0,4.6,'11111222,11111222,11111222' 
LUMCON,ioos:station:LUMCON:101:1,2005-03-07T16:00:00Z,29.2533,-90.6633,1.0,3.6,170.0,5.1,'11111222,11111222,11111222' 
LUMCON,ioos:station:LUMCON:101:1,2005-03-07T17:00:00Z,29.2533,-90.6633,1.0,3.1,160.0,4.6,'11111222,11111222,11111222' 
LUMCON,ioos:station:LUMCON:101:1,2005-03-07T18:00:00Z,29.2533,-90.6633,1.0,4.6,160.0,6.2,'11111222,11111222,11111222' 
LUMCON,ioos:station:LUMCON:101:1,2005-03-07T19:00:00Z,29.2533,-90.6633,1.0,5.1,160.0,7.2,'11111222,11111222,11111222' 
LUMCON,ioos:station:LUMCON:101:1,2005-03-07T20:00:00Z,29.2533,-90.6633,1.0,4.1,160.0,6.2,'11111222,11111222,11111222' 
LUMCON,ioos:station:LUMCON:101:1,2005-03-07T21:00:00Z,29.2533,-90.6633,1.0,5.7,200.0,7.2,'11111222,11111222,11111222' 
LUMCON,ioos:station:LUMCON:101:1,2005-03-07T22:00:00Z,29.2533,-90.6633,1.0,7.2,200.0,10.3,'11111222,11111222,11111222' 
LUMCON,ioos:station:LUMCON:101:1,2005-03-07T23:00:00Z,29.2533,-90.6633,1.0,8.8,210.0,10.8,'11111222,11111222,11111222' 
LUMCON,ioos:station:LUMCON:101:1,2005-03-08T00:00:00Z,29.2533,-90.6633,1.0,5.7,290.0,10.3,'11111222,11111222,11111222' 
LUMCON,ioos:station:LUMCON:101:1,2005-03-08T01:00:00Z,29.2533,-90.6633,1.0,0.5,30.0,1.5,'11111222,11111222,11111222' 
LUMCON,ioos:station:LUMCON:101:1,2005-03-08T02:00:00Z,29.2533,-90.6633,1.0,3.1,230.0,4.1,'11111222,11111222,11111222' 
LUMCON,ioos:station:LUMCON:101:1,2005-03-08T03:00:00Z,29.2533,-90.6633,1.0,5.1,250.0,6.2,'11111222,11111222,11111222' 
LUMCON,ioos:station:LUMCON:101:1,2005-03-08T04:00:00Z,29.2533,-90.6633,1.0,6.7,260.0,9.3,'11111222,11111222,11111222' 
LUMCON,ioos:station:LUMCON:101:1,2005-03-08T05:00:00Z,29.2533,-90.6633,1.0,7.7,270.0,9.8,'11111222,11111222,11111222' 
LUMCON,ioos:station:LUMCON:101:1,2005-03-08T06:00:00Z,29.2533,-90.6633,1.0,8.2,280.0,11.3,'11111222,11111222,11111222' 
LUMCON,ioos:station:LUMCON:101:1,2005-03-08T07:00:00Z,29.2533,-90.6633,1.0,6.7,310.0,9.3,'11111222,11111222,11111222' 
LUMCON,ioos:station:LUMCON:101:1,2005-03-08T08:00:00Z,29.2533,-90.6633,1.0,6.2,320.0,8.2,'11111222,11111222,11111222' 
LUMCON,ioos:station:LUMCON:101:1,2005-03-08T09:00:00Z,29.2533,-90.6633,1.0,7.2,330.0,9.3,'11111222,11111222,11111222' 
LUMCON,ioos:station:LUMCON:101:1,2005-03-08T10:00:00Z,29.2533,-90.6633,1.0,6.2,320.0,8.8,'11111222,11111222,11111222' 
LUMCON,ioos:station:LUMCON:101:1,2005-03-08T11:00:00Z,29.2533,-90.6633,1.0,7.2,330.0,9.3,'11111222,11111222,11111222' 
LUMCON,ioos:station:LUMCON:101:1,2005-03-08T12:00:00Z,29.2533,-90.6633,1.0,7.7,340.0,11.3,'11111222,11111222,11111222' 
LUMCON,ioos:station:LUMCON:101:1,2005-03-08T13:00:00Z,29.2533,-90.6633,1.0,7.2,340.0,9.3,'11111222,11111222,11111222' 
LUMCON,ioos:station:LUMCON:101:1,2005-03-08T14:00:00Z,29.2533,-90.6633,1.0,6.7,340.0,9.3,'11111222,11111222,11111222' 
LUMCON,ioos:station:LUMCON:101:1,2005-03-08T15:00:00Z,29.2533,-90.6633,1.0,7.7,360.0,9.8,'11111222,11144222,11111222' 
LUMCON,ioos:station:LUMCON:101:1,2005-03-08T16:00:00Z,29.2533,-90.6633,1.0,6.7,0.0,9.3,'11111222,11111222,11111222' 
LUMCON,ioos:station:LUMCON:101:1,2005-03-08T17:00:00Z,29.2533,-90.6633,1.0,6.2,0.0,8.8,'11111222,11111222,11111222' 
LUMCON,ioos:station:LUMCON:101:1,2005-03-08T18:00:00Z,29.2533,-90.6633,1.0,5.1,360.0,7.2,'11111222,11144222,11111222' 
LUMCON,ioos:station:LUMCON:101:1,2005-03-08T19:00:00Z,29.2533,-90.6633,1.0,4.6,360.0,7.2,'11111222,11144222,11111222' 
LUMCON,ioos:station:LUMCON:101:1,2005-03-08T20:00:00Z,29.2533,-90.6633,1.0,4.1,10.0,5.7,'11111222,11111222,11111222' 
LUMCON,ioos:station:LUMCON:101:1,2005-03-08T21:00:00Z,29.2533,-90.6633,1.0,2.6,350.0,4.6,'11111222,11111222,11111222' 
LUMCON,ioos:station:LUMCON:101:1,2005-03-08T22:00:00Z,29.2533,-90.6633,1.0,3.1,360.0,5.1,'11111222,11144222,11111222' 
LUMCON,ioos:station:LUMCON:101:1,2005-03-08T23:00:00Z,29.2533,-90.6633,1.0,2.6,360.0,3.6,'11111222,11144222,11111222' 
LUMCON,ioos:station:LUMCON:101:1,2005-03-09T00:00:00Z,29.2533,-90.6633,1.0,2.1,50.0,3.1,'11111222,11111222,11111222' 
LUMCON,ioos:station:LUMCON:101:1,2005-03-09T01:00:00Z,29.2533,-90.6633,1.0,2.6,60.0,3.6,'11111222,11111222,11111222' 
LUMCON,ioos:station:LUMCON:101:1,2005-03-09T02:00:00Z,29.2533,-90.6633,1.0,2.1,60.0,3.1,'11111222,11111222,11111222' 
LUMCON,ioos:station:LUMCON:101:1,2005-03-09T03:00:00Z,29.2533,-90.6633,1.0,2.6,40.0,3.6,'11111222,11111222,11111222' 
LUMCON,ioos:station:LUMCON:101:1,2005-03-09T04:00:00Z,29.2533,-90.6633,1.0,3.1,20.0,3.6,'11111222,11111222,11111222' 
LUMCON,ioos:station:LUMCON:101:1,2005-03-09T05:00:00Z,29.2533,-90.6633,1.0,3.1,10.0,4.1,'11111222,11111222,11111222' 
LUMCON,ioos:station:LUMCON:101:1,2005-03-09T06:00:00Z,29.2533,-90.6633,1.0,3.1,30.0,4.1,'11111222,11111222,11111222' 
LUMCON,ioos:station:LUMCON:101:1,2005-03-09T07:00:00Z,29.2533,-90.6633,1.0,3.6,30.0,5.1,'11111222,11111222,11111222' 
LUMCON,ioos:station:LUMCON:101:1,2005-03-09T08:00:00Z,29.2533,-90.6633,1.0,2.6,70.0,3.6,'11111222,11111222,11111222' 
LUMCON,ioos:station:LUMCON:101:1,2005-03-09T09:00:00Z,29.2533,-90.6633,1.0,2.1,50.0,3.6,'11111222,11111222,11111222' 
LUMCON,ioos:station:LUMCON:101:1,2005-03-09T10:00:00Z,29.2533,-90.6633,1.0,3.1,30.0,4.1,'11111222,11111222,11111222' 
LUMCON,ioos:station:LUMCON:101:1,2005-03-09T11:00:00Z,29.2533,-90.6633,1.0,4.6,30.0,6.2,'11111222,11111222,11111222' 
LUMCON,ioos:station:LUMCON:101:1,2005-03-09T12:00:00Z,29.2533,-90.6633,1.0,4.6,50.0,6.7,'11111222,11111222,11111222' 
LUMCON,ioos:station:LUMCON:101:1,2005-03-09T13:00:00Z,29.2533,-90.6633,1.0,5.7,30.0,7.7,'11111222,11111222,11111222' 
LUMCON,ioos:station:LUMCON:101:1,2005-03-09T14:00:00Z,29.2533,-90.6633,1.0,5.1,40.0,6.7,'11111222,11111222,11111222' 
LUMCON,ioos:station:LUMCON:101:1,2005-03-09T15:00:00Z,29.2533,-90.6633,1.0,5.1,70.0,7.2,'11111222,11111222,11111222' 
LUMCON,ioos:station:LUMCON:101:1,2005-03-09T16:00:00Z,29.2533,-90.6633,1.0,3.6,60.0,6.2,'11111222,11111222,11111222' 